TOURFACTS.DK  
Stats and Facts from Tour de France.

Tour de France 2018 starts in 11 days
  Riders   Stages   Teams   Summits   Yearly  


 
Search by year

After 2017 - Stage 21:
 14824 starters.
  5132 different riders.
  639 teams.
  2232 stages.
  456 restdays.
  439589.60 km.
  5653 abandonnees.


Top 3
GC
Christopher Froome86:20:55
Rigoberto Urán86:21:49
Romain Bardet86:23:15
Climb
Warren Barguil169 pt.
Primoz Roglic80 pt.
Thomas De Gendt64 pt.
Sprint
Michael Matthews359 pt.
André Greipel234 pt.
Edvald Boasson Hagen220 pt.
Youth
Simon Yates86:27:09
Louis Meintjes86:29:15
Emanuel Buchmann86:54:16
Facts from Tour de France 1995
  |   Stages.  |   Stage winners.  |   Days in yellow  |   Average speed.  |   Route.  |   Teams.  |   All riders.  |   Rookies.  |  

  |   Withdrawls.  |   GC.  |   Polka  |   Green  |   White  |   Summits. (In tour)  |   Miscellaneous.  |  

Stage 19 on 21 - 07 - 1995
         Owning:    Miguel Indurain    
Pick a stage:  Pro 1 2 3 4 5 6 7 8 9 10 11 12 13 14 15 17 18 19 20
  Lac de VassivièreLac de Vassivière | Dist: 46.50 km.

Average speed for all riders in stage:  43,300 km./hr.
    Place:Name:Team:Time:Km/h:
ESPMiguel IndurainESPBanesto00:57:34  +  00:00:00=48,466 
DENBjarne RiisITAGewiss-Ballan00:58:22  +  00:00:48=47,801 
DENTony RomingerBELMapei-GP00:58:39  +  00:01:05=47,570 
4 ITAIvan GottiITAGewiss-Ballan00:59:15  +  00:01:41=47,089 
5 ESPFernando EscartinBELMapei-GP00:59:20  +  00:01:46=47,022 
6 SUIAlex ZülleESPO.N.C.E.00:59:23  +  00:01:49=46,983 
7 FRALaurent JalabertESPO.N.C.E.00:59:32  +  00:01:58=46,865 
8 ESPMelchor MauriESPO.N.C.E.00:59:52  +  00:02:18=46,604 
9 MARRichard VirenqueFRAFestina01:00:11  +  00:02:37=46,358 
10 COLAlvaro MejiaUSAMotorola01:00:41  +  00:03:07=45,976 
11 FRALaurent MadouasFRACastorama01:00:49  +  00:03:15=45,876 
12 FRAThierry MarieFRACastorama01:01:11  +  00:03:37=45,601 
13 FRALaurent BrochardFRAFestina01:01:16  +  00:03:42=45,539 
14 NEDErik BreukinkESPO.N.C.E.01:01:17  +  00:03:43=45,526 
15 DENBo HamburgerNLDTVM-Polis Direct01:01:18  +  00:03:44=45,514 
16 ITAGabriele ColomboITAGewiss-Ballan01:01:38  +  00:04:04=45,268 
17 ITAClaudio ChiappucciITACarrera-Tassoni01:01:54  +  00:04:20=45,073 
18 URSViatcheslav EkimovNLDNovell01:01:55  +  00:04:21=45,061 
19 SUILaurent DufauxFRAFestina01:01:55  +  00:04:21=45,061 
20 ITAAlberto ElliITAMG Maglificio-Technogym01:02:06  +  00:04:32=44,928 
21 COLHernán BuenahoraESPKelme-Avianca01:02:17  +  00:04:43=44,795 
22 ITAMassimiliano LelliITAMercatone Uno-Saeco01:02:19  +  00:04:45=44,771 
23 BELJohan BruyneelESPO.N.C.E.01:02:20  +  00:04:46=44,759 
24 ITABruno CenghialtaITAGewiss-Ballan01:02:28  +  00:04:54=44,664 
25 FRAFrançois SimonFRACastorama01:02:36  +  00:05:02=44,569 
26 ITAAlessio GallettiITALampre-Panaria01:02:38  +  00:05:04=44,545 
27 GERRolf AldagITATelecom-ZG-Selle Italia01:02:40  +  00:05:06=44,521 
28 DENJesper SkibbyNLDTVM-Polis Direct01:02:51  +  00:05:17=44,391 
29 FRAJean-Cyril RobinFRAFestina01:02:54  +  00:05:20=44,356 
30 FRAJean-François BernardFRAChazal-MBK-Konig01:02:59  +  00:05:25=44,297 
31 ITAAndrea PeronUSAMotorola01:03:02  +  00:05:28=44,262 
32 ITARossano BrasiITATeam Polti01:03:07  +  00:05:33=44,204 
33 FRAArmand De Las CuevasFRACastorama01:03:16  +  00:05:42=44,099 
34 ITAMarco PantaniITACarrera-Tassoni01:03:19  +  00:05:45=44,064 
35 URSArturas KasputisFRAChazal-MBK-Konig01:03:26  +  00:05:52=43,983 
36 ITANicola LodaITAMG Maglificio-Technogym01:03:26  +  00:05:52=43,983 
37 FRAYvon LedanoisFRAGan01:03:40  +  00:06:06=43,822 
38 POLZenon JaskulaITAAki-Gipiemme01:03:42  +  00:06:08=43,799 
39 FRAGilles BouvardFRAChazal-MBK-Konig01:03:47  +  00:06:13=43,742 
40 NEDErik DekkerNLDNovell01:03:49  +  00:06:15=43,719 
41 UKRAlexander GontchenkovITALampre-Panaria01:03:50  +  00:06:16=43,708 
42 ITAGian Matteo FagniniITAMercatone Uno-Saeco01:03:57  +  00:06:23=43,628 
43 USALance ArmstrongUSAMotorola01:03:58  +  00:06:24=43,616 
44 ITAPaolo LanfranchiITABrescialat01:04:04  +  00:06:30=43,548 
45 ITAEnrico ZainaITACarrera-Tassoni01:04:04  +  00:06:30=43,548 
46 VENLeonardo SierraITACarrera-Tassoni01:04:06  +  00:06:32=43,526 
47 GERUdo BöltsITATelecom-ZG-Selle Italia01:04:14  +  00:06:40=43,435 
48 URSVladimir PoulnikovITATelecom-ZG-Selle Italia01:04:15  +  00:06:41=43,424 
49 SUIFabian JekerFRAFestina01:04:16  +  00:06:42=43,413 
50 USAFrankie AndreuUSAMotorola01:04:17  +  00:06:43=43,402 
51 ESPVicente AparicioESPBanesto01:04:20  +  00:06:46=43,368 
52 ENGMaximilian SciandriITAMG Maglificio-Technogym01:04:22  +  00:06:48=43,345 
53 SUIBeat ZbergITACarrera-Tassoni01:04:25  +  00:06:51=43,312 
54 ITADavide PeronaITALampre-Panaria01:04:32  +  00:06:58=43,233 
55 ESPMarino MonjeESPBanesto01:04:36  +  00:07:02=43,189 
56 BELWilfried PeetersBELMapei-GP01:04:37  +  00:07:03=43,178 
57 FRADidier RousFRAGan01:04:38  +  00:07:04=43,167 
58 ITAAndrea TafiBELMapei-GP01:04:42  +  00:07:08=43,122 
59 AUTGeorg TotschnigITATeam Polti01:04:51  +  00:07:17=43,022 
60 ITAGuido BontempiITAGewiss-Ballan01:04:52  +  00:07:18=43,011 
61 URSAndrei TchmilBELLotto-Isoglass01:04:56  +  00:07:22=42,967 
62 NZLStephen SwartUSAMotorola01:05:00  +  00:07:26=42,923 
63 ITAMarco MilesiITABrescialat01:05:00  +  00:07:26=42,923 
64 DDRErik ZabelITATelecom-ZG-Selle Italia01:05:02  +  00:07:28=42,901 
65 BELPeter FarazijnBELLotto-Isoglass01:05:13  +  00:07:39=42,780 
66 ESPHerminio ZabalaESPO.N.C.E.01:05:20  +  00:07:46=42,704 
67 NEDFrans MaassenNLDNovell01:05:22  +  00:07:48=42,682 
68 ESPJosé Angel VidalESPKelme-Avianca01:05:23  +  00:07:49=42,671 
69 DDRJens HeppnerITATelecom-ZG-Selle Italia01:05:27  +  00:07:53=42,628 
70 FRAGilles TalmantFRACastorama01:05:28  +  00:07:54=42,617 
71 ITADario BottaroITAGewiss-Ballan01:05:29  +  00:07:55=42,606 
72 ITAMassimo DonatiITAMercatone Uno-Saeco01:05:30  +  00:07:56=42,595 
73 ITAMassimo PodenzanaITABrescialat01:05:33  +  00:07:59=42,563 
74 ITADavide CassaniITAMG Maglificio-Technogym01:05:35  +  00:08:01=42,541 
75 FRAGérard RuéESPBanesto01:05:39  +  00:08:05=42,498 
76 ITAMauro BettinITAAki-Gipiemme01:05:43  +  00:08:09=42,455 
77 ITAMarco SerpelliniITALampre-Panaria01:05:45  +  00:08:11=42,433 
78 MEXMiguel ArroyoFRAChazal-MBK-Konig01:05:45  +  00:08:11=42,433 
79 NEDEddy BouwmansNLDNovell01:05:47  +  00:08:13=42,412 
80 ITAAlberto VolpiITAGewiss-Ballan01:05:49  +  00:08:15=42,390 
81 BELJohan MuseeuwBELMapei-GP01:05:50  +  00:08:16=42,380 
82 SUIRolf JärmannITAMG Maglificio-Technogym01:05:58  +  00:08:24=42,294 
83 ESPArsenio GonzálezBELMapei-GP01:06:03  +  00:08:29=42,241 
84 CANSteve BauerUSAMotorola01:06:07  +  00:08:33=42,198 
85 ESPCarmelo MirandaESPBanesto01:06:08  +  00:08:34=42,188 
86 ITAAndrea FerrigatoITATelecom-ZG-Selle Italia01:06:11  +  00:08:37=42,156 
87 FRABruno CornilletFRAChazal-MBK-Konig01:06:15  +  00:08:41=42,113 
88 ITAGianluca GoriniITAAki-Gipiemme01:06:19  +  00:08:45=42,071 
89 ITAGiovanni FidanzaITATeam Polti01:06:20  +  00:08:46=42,060 
90 AUSNeil StephensESPO.N.C.E.01:06:29  +  00:08:55=41,965 
91 ITAMario ScireaITATeam Polti01:06:32  +  00:08:58=41,934 
92 ITAFlavio VanzellaITAMG Maglificio-Technogym01:06:33  +  00:08:59=41,923 
93 NEDBart VoskampNLDTVM-Polis Direct01:06:35  +  00:09:01=41,902 
94 ITAMarcello SiboniITACarrera-Tassoni01:06:39  +  00:09:05=41,860 
95 COLFederico FernandezESPKelme-Avianca01:06:42  +  00:09:08=41,829 
96 URSDjamolidine AbduzhaparovNLDNovell01:06:43  +  00:09:09=41,819 
97 BELJim Van De LaerNLDTVM-Polis Direct01:06:54  +  00:09:20=41,704 
98 ITAFranco VonaITAMG Maglificio-Technogym01:06:55  +  00:09:21=41,694 
99 FRAThomas DavyESPBanesto01:06:57  +  00:09:23=41,673 
100 SUIGianni BugnoITAMG Maglificio-Technogym01:07:04  +  00:09:30=41,600 
101 ESPLaudelino CubinoESPKelme-Avianca01:07:10  +  00:09:36=41,538 
102 ESPAitor GarmendiaESPBanesto01:07:11  +  00:09:37=41,528 
103 URSArvis PiziksNLDNovell01:07:12  +  00:09:38=41,518 
104 ITAStefano ColagèITATelecom-ZG-Selle Italia01:07:14  +  00:09:40=41,497 
105 ITAFrancesco FrattiniITAGewiss-Ballan01:07:18  +  00:09:44=41,456 
106 ITAGiovanni LombardiITATeam Polti01:07:23  +  00:09:49=41,405 
107 ITAGiancarlo PeriniITABrescialat01:07:26  +  00:09:52=41,374 
108 ITAOscar PelliccioliITATeam Polti01:07:27  +  00:09:53=41,364 
109 NEDMaarten Den BakkerNLDTVM-Polis Direct01:07:27  +  00:09:53=41,364 
110 ESPJosé UriarteESPBanesto01:07:32  +  00:09:58=41,313 
111 ITAEros PoliITAMercatone Uno-Saeco01:07:40  +  00:10:06=41,232 
112 FRAFrançois LemarchandFRAGan01:07:57  +  00:10:23=41,060 
113 URSSerguei OutschakovITATeam Polti01:07:58  +  00:10:24=41,050 
114 ESPRamon GonzalezESPBanesto01:09:23  +  00:11:49=40,211 
115 AUSStephen HodgeFRAFestina01:09:54  +  00:12:20=39,914 


Todays birthdays.

1902  Bernard Wiber
1908  Auguste Van Tricht
1910  Orlando Teani
1913  Gustaaf Deloor
1935  Jean Milesi
1972  Robbie McEwen




Visits: